Location: Godzisko
(49.9648°N, 19.4576°E)
Time: 06:20:15
(UTC+00:00)

Cosmos 1766 - Pass Details

Date: 20 April 2021
Orbit: 522 x 542 km, 82.5° (Epoch: 06 May)

Event Time Altitude Azimuth Distance (km) Brightness Sun altitude
Rises 02:23:21 0° 346° (NNW) 2,715 7.1 -11.7°
Reaches altitude 10° 02:25:33 10° 343° (NNW) 1,819 6.2 -11.4°
Maximum altitude 02:29:29 59° 264° (W) 632 3.3 -10.9°
Drops below altitude 10° 02:33:23 10° 185° (S) 1,803 5.6 -10.4°
Sets 02:35:33 0° 181° (S) 2,689 6.5 -10.1°
